Tracking 18840 objects as of 18-November-2017
HD Live streaming from Space Station
objects crossing your sky now

CZ-3B DEB

Track CZ-3B DEB now!


NORAD ID: 40159
Int'l Code: 2010-042L
Perigee: 338.0 km
Apogee: 36,503.5 km
Inclination: 27.1 °
Period: 647.5 minutes
Semi major axis: 24791 km
RCS: Unknown
Launch date: September 4, 2010
Source: People's Republic of China (PRC)
Launch site: Xichang Space Center, China (XSC)

Note: This is SATELLITE DEBRIS
aabbcc
Your satellite tracking list
Your tracking list is empty




NASA's NSSDC Master Catalog

Two Line Element Set (TLE):
1 40159U 10042L   17317.32510113  .00007968  00000-0  92970-2 0  9990
2 40159  27.1496  73.0745 7293861 182.9910 167.0875  2.22403773 47232
Source of the keplerian elements: AFSPC